IRIDIUM 114

Last updated on Sun Jun 21 2026 00:03:13 GMT+0000 (Coordinated Universal Time)

1 41923U 17003G 26171.28581295 .00000007 00000+0 -44811-5 0 9997 2 41923 86.3963 87.1696 0002201 80.0689 280.0755 14.34217653493693
UTC large
Height (km)
Speed (km/s)
/
Latitude / Longitude
Inclination (degrees)
Orbital Period (minutes)
Azimuth
Elevation
Range (km)
Doppler Factor

Next 0 passes for location: London (51.5072 / 0.1276)

No passes found over London.
IRIDIUM 114